VIV1021 MMSD-MMMX

Flight info

Callsign VIV1021
Flight time 1h 34m
Altitude 35000
Route ILIGA1A ILIGA UT75 PVR UJ14 QET UT150 DARAN DARAN3A
Aircraft A320/M-SDE3FGHIRWY/LB1

Departure

Time 2026-04-24 01:02
Airport Los Cabos International Airport (MMSD)

Arrival

Time 2026-04-24 02:36
Airport Mexico City Benito Juárez International Airport (MMMX)
Time Latitude Longitude Altitude Speed Heading
2026-04-24 00:54 23.16035 -109.71827 378 ft 0 kts 85°
2026-04-24 00:55 23.16035 -109.71830 378 ft 1 kts 85°
2026-04-24 00:55 23.16032 -109.71849 378 ft 3 kts 76°
2026-04-24 00:56 23.16026 -109.71868 378 ft 3 kts 46°
2026-04-24 00:56 23.16014 -109.71877 377 ft 2 kts 358°
2026-04-24 00:56 23.16011 -109.71877 377 ft 0 kts 355°
2026-04-24 00:58 23.16033 -109.71879 378 ft 8 kts 354°
2026-04-24 00:58 23.16096 -109.71887 379 ft 9 kts 353°
2026-04-24 00:58 23.16138 -109.71929 380 ft 9 kts 275°
2026-04-24 00:58 23.16172 -109.71978 381 ft 9 kts 348°
2026-04-24 00:59 23.16240 -109.71986 382 ft 10 kts 356°
2026-04-24 00:59 23.16310 -109.71992 384 ft 10 kts 354°
2026-04-24 00:59 23.16381 -109.72008 386 ft 10 kts 354°
2026-04-24 00:59 23.16452 -109.72017 387 ft 10 kts 357°
2026-04-24 01:00 23.16526 -109.72022 389 ft 11 kts 355°
2026-04-24 01:00 23.16566 -109.72079 390 ft 11 kts 265°
2026-04-24 01:00 23.16555 -109.72169 390 ft 13 kts 257°
2026-04-24 01:00 23.16505 -109.72210 389 ft 7 kts 167°
2026-04-24 01:01 23.16416 -109.72209 387 ft 31 kts 174°
2026-04-24 01:01 23.15970 -109.72159 376 ft 95 kts 175°
2026-04-24 01:01 23.15144 -109.72066 361 ft 142 kts 173°
2026-04-24 01:01 23.14045 -109.71944 522 ft 167 kts 172°
2026-04-24 01:02 23.12883 -109.71820 1100 ft 169 kts 170°
2026-04-24 01:02 23.11697 -109.71675 1689 ft 174 kts 171°
2026-04-24 01:02 23.10486 -109.71348 2065 ft 187 kts 160°
2026-04-24 01:02 23.09284 -109.70674 2342 ft 203 kts 149°
2026-04-24 01:03 23.08108 -109.69692 2588 ft 225 kts 136°
2026-04-24 01:03 23.07065 -109.68303 2850 ft 250 kts 123°
2026-04-24 01:03 23.06109 -109.66636 3307 ft 267 kts 122°
2026-04-24 01:03 23.05102 -109.64901 3990 ft 274 kts 122°
2026-04-24 01:04 23.04073 -109.63134 4796 ft 278 kts 122°
2026-04-24 01:04 23.03029 -109.61342 5555 ft 283 kts 123°
2026-04-24 01:04 23.01960 -109.59514 6242 ft 289 kts 123°
2026-04-24 01:04 23.00876 -109.57663 6972 ft 292 kts 123°
2026-04-24 01:05 22.99784 -109.55793 7660 ft 296 kts 124°
2026-04-24 01:05 22.98672 -109.53894 8332 ft 300 kts 124°
2026-04-24 01:05 22.97530 -109.51974 9006 ft 305 kts 125°
2026-04-24 01:05 22.96365 -109.50033 9649 ft 309 kts 126°
2026-04-24 01:06 22.95176 -109.48060 10199 ft 317 kts 126°
2026-04-24 01:06 22.93922 -109.45988 10331 ft 339 kts 125°
2026-04-24 01:06 22.92590 -109.43781 10450 ft 360 kts 125°
2026-04-24 01:06 22.91188 -109.41451 10569 ft 378 kts 124°
2026-04-24 01:07 22.89732 -109.39025 10835 ft 388 kts 124°
2026-04-24 01:07 22.88215 -109.36580 11310 ft 391 kts 129°
2026-04-24 01:07 22.86528 -109.34301 11825 ft 394 kts 130°
2026-04-24 01:07 22.84799 -109.31983 12344 ft 396 kts 130°
2026-04-24 01:08 22.83060 -109.29657 12869 ft 398 kts 130°
2026-04-24 01:08 22.81312 -109.27317 13374 ft 401 kts 130°
2026-04-24 01:08 22.79548 -109.24954 13865 ft 403 kts 129°
2026-04-24 01:08 22.77779 -109.22583 14288 ft 406 kts 129°
2026-04-24 01:09 22.75996 -109.20196 14716 ft 409 kts 129°
2026-04-24 01:09 22.74201 -109.17789 15136 ft 412 kts 129°
2026-04-24 01:09 22.72391 -109.15365 15550 ft 415 kts 129°
2026-04-24 01:09 22.70563 -109.12922 15966 ft 418 kts 129°
2026-04-24 01:10 22.68726 -109.10468 16387 ft 421 kts 129°
2026-04-24 01:10 22.66869 -109.07988 16801 ft 424 kts 129°
2026-04-24 01:10 22.65003 -109.05495 17217 ft 427 kts 129°
2026-04-24 01:10 22.63147 -109.03015 17636 ft 431 kts 129°
2026-04-24 01:11 22.61253 -109.00486 18055 ft 434 kts 129°
2026-04-24 01:11 22.59347 -108.97942 18426 ft 437 kts 129°
2026-04-24 01:11 22.57430 -108.95388 18821 ft 438 kts 129°
2026-04-24 01:11 22.55504 -108.92824 19205 ft 440 kts 129°
2026-04-24 01:12 22.53569 -108.90249 19564 ft 442 kts 129°
2026-04-24 01:12 22.51618 -108.87658 19912 ft 445 kts 129°
2026-04-24 01:12 22.49661 -108.85056 20267 ft 448 kts 129°
2026-04-24 01:12 22.47689 -108.82437 20628 ft 450 kts 129°
2026-04-24 01:13 22.45704 -108.79800 20974 ft 453 kts 129°
2026-04-24 01:13 22.43710 -108.77149 21327 ft 455 kts 129°
2026-04-24 01:13 22.41705 -108.74484 21656 ft 458 kts 129°
2026-04-24 01:13 22.39689 -108.71805 21982 ft 461 kts 130°
2026-04-24 01:14 22.37663 -108.69116 22294 ft 463 kts 129°
2026-04-24 01:14 22.35815 -108.66251 22605 ft 466 kts 120°
2026-04-24 01:14 22.34348 -108.63117 22898 ft 469 kts 116°
2026-04-24 01:14 22.32948 -108.59927 23195 ft 471 kts 116°
2026-04-24 01:15 22.31541 -108.56720 23511 ft 473 kts 116°
2026-04-24 01:15 22.30128 -108.53507 23766 ft 475 kts 116°
2026-04-24 01:15 22.28703 -108.50277 24024 ft 477 kts 116°
2026-04-24 01:15 22.27271 -108.47043 24278 ft 479 kts 116°
2026-04-24 01:16 22.25828 -108.43790 24538 ft 481 kts 116°
2026-04-24 01:16 22.24380 -108.40527 24785 ft 483 kts 116°
2026-04-24 01:16 22.23418 -108.38362 24943 ft 484 kts 116°
2026-04-24 01:16 22.21960 -108.35074 25188 ft 486 kts 116°
2026-04-24 01:17 22.20001 -108.30655 25567 ft 488 kts 116°
2026-04-24 01:17 22.19032 -108.28467 25810 ft 487 kts 116°
2026-04-24 01:17 22.17576 -108.25171 26181 ft 487 kts 116°
2026-04-24 01:17 22.16118 -108.21877 26540 ft 486 kts 116°
2026-04-24 01:18 22.14649 -108.18575 26904 ft 486 kts 117°
2026-04-24 01:18 22.13184 -108.15291 27286 ft 486 kts 117°
2026-04-24 01:18 22.11719 -108.12013 27670 ft 485 kts 117°
2026-04-24 01:18 22.10253 -108.08727 28064 ft 485 kts 117°
2026-04-24 01:19 22.08796 -108.05449 28472 ft 484 kts 117°
2026-04-24 01:19 22.07339 -108.02172 28872 ft 483 kts 117°
2026-04-24 01:19 22.05888 -107.98915 29315 ft 482 kts 117°
2026-04-24 01:19 22.04435 -107.95656 29755 ft 481 kts 117°
2026-04-24 01:20 22.02981 -107.92409 30155 ft 481 kts 117°
2026-04-24 01:20 22.01526 -107.89165 30520 ft 480 kts 117°
2026-04-24 01:20 22.00079 -107.85931 30900 ft 479 kts 117°
2026-04-24 01:20 21.98652 -107.82743 31268 ft 478 kts 117°
2026-04-24 01:21 21.97209 -107.79517 31664 ft 477 kts 117°
2026-04-24 01:21 21.95768 -107.76298 32057 ft 476 kts 118°
2026-04-24 01:21 21.94331 -107.73092 32442 ft 475 kts 118°
2026-04-24 01:21 21.92889 -107.69882 32809 ft 475 kts 118°
2026-04-24 01:22 21.91449 -107.66680 33203 ft 474 kts 118°
2026-04-24 01:22 21.90014 -107.63489 33601 ft 473 kts 118°
2026-04-24 01:22 21.88582 -107.60306 33979 ft 472 kts 118°
2026-04-24 01:22 21.87147 -107.57124 34301 ft 471 kts 118°
2026-04-24 01:23 21.85721 -107.53957 34599 ft 470 kts 118°
2026-04-24 01:23 21.84290 -107.50778 34852 ft 471 kts 118°
2026-04-24 01:23 21.82877 -107.47640 34915 ft 473 kts 118°
2026-04-24 01:24 21.79964 -107.41188 34937 ft 484 kts 118°
2026-04-24 01:24 21.77017 -107.34651 34937 ft 487 kts 118°
2026-04-24 01:25 21.74055 -107.28091 34934 ft 487 kts 118°
2026-04-24 01:25 21.71087 -107.21542 34937 ft 487 kts 118°
2026-04-24 01:26 21.68106 -107.14975 34939 ft 487 kts 118°
2026-04-24 01:26 21.65125 -107.08423 34944 ft 488 kts 118°
2026-04-24 01:27 21.62137 -107.01869 34941 ft 488 kts 118°
2026-04-24 01:27 21.59156 -106.95316 34931 ft 489 kts 118°
2026-04-24 01:28 21.56159 -106.88732 34906 ft 491 kts 118°
2026-04-24 01:28 21.53145 -106.82137 34913 ft 493 kts 118°
2026-04-24 01:29 21.50140 -106.75563 34919 ft 494 kts 118°
2026-04-24 01:29 21.47110 -106.68945 34927 ft 494 kts 118°
2026-04-24 01:30 21.44082 -106.62320 34924 ft 495 kts 118°
2026-04-24 01:30 21.41040 -106.55690 34927 ft 495 kts 118°
2026-04-24 01:31 21.37985 -106.49061 34933 ft 495 kts 118°
2026-04-24 01:31 21.34928 -106.42432 34934 ft 496 kts 118°
2026-04-24 01:32 21.31875 -106.35796 34942 ft 496 kts 118°
2026-04-24 01:32 21.28782 -106.29188 34940 ft 495 kts 120°
2026-04-24 01:33 21.25324 -106.22811 34940 ft 493 kts 123°
2026-04-24 01:33 21.21686 -106.16627 34944 ft 493 kts 124°
2026-04-24 01:34 21.18074 -106.10378 34944 ft 493 kts 123°
2026-04-24 01:34 21.14541 -106.04073 34938 ft 493 kts 122°
2026-04-24 01:35 21.11022 -105.97763 34943 ft 493 kts 122°
2026-04-24 01:35 21.07481 -105.91459 34931 ft 493 kts 122°
2026-04-24 01:36 21.03933 -105.85172 34928 ft 494 kts 122°
2026-04-24 01:36 21.00372 -105.78890 34943 ft 493 kts 122°
2026-04-24 01:37 20.96829 -105.72618 34939 ft 492 kts 122°
2026-04-24 01:37 20.93306 -105.66381 34945 ft 492 kts 122°
2026-04-24 01:38 20.89756 -105.60119 34947 ft 493 kts 122°
2026-04-24 01:38 20.86197 -105.53852 34948 ft 493 kts 122°
2026-04-24 01:39 20.82636 -105.47580 34955 ft 493 kts 122°
2026-04-24 01:39 20.79079 -105.41304 34957 ft 493 kts 122°
2026-04-24 01:40 20.75519 -105.35038 34961 ft 493 kts 122°
2026-04-24 01:40 20.71951 -105.28772 34961 ft 493 kts 122°
2026-04-24 01:41 20.69305 -105.22035 34962 ft 494 kts 103°
2026-04-24 01:41 20.68449 -105.14757 34956 ft 494 kts 94°
2026-04-24 01:42 20.67843 -105.07440 34950 ft 495 kts 95°
2026-04-24 01:42 20.67229 -105.00119 34962 ft 495 kts 95°
2026-04-24 01:43 20.66619 -104.92797 34984 ft 495 kts 95°
2026-04-24 01:43 20.66009 -104.85471 34992 ft 495 kts 94°
2026-04-24 01:44 20.65397 -104.78144 34989 ft 495 kts 95°
2026-04-24 01:44 20.64783 -104.70865 34985 ft 495 kts 95°
2026-04-24 01:45 20.64164 -104.63542 34983 ft 495 kts 95°
2026-04-24 01:45 20.63534 -104.56218 34986 ft 495 kts 95°
2026-04-24 01:46 20.62898 -104.48897 34972 ft 495 kts 95°
2026-04-24 01:46 20.62263 -104.41568 34970 ft 495 kts 95°
2026-04-24 01:47 20.61628 -104.34248 34950 ft 495 kts 95°
2026-04-24 01:47 20.60983 -104.26927 34949 ft 495 kts 95°
2026-04-24 01:48 20.60334 -104.19601 34928 ft 495 kts 95°
2026-04-24 01:48 20.59695 -104.12280 34927 ft 495 kts 95°
2026-04-24 01:49 20.59065 -104.04999 34905 ft 496 kts 95°
2026-04-24 01:49 20.58418 -103.97674 34906 ft 496 kts 95°
2026-04-24 01:50 20.57764 -103.90350 34891 ft 496 kts 95°
2026-04-24 01:50 20.57107 -103.83000 34897 ft 496 kts 95°
2026-04-24 01:51 20.56443 -103.75684 34886 ft 495 kts 95°
2026-04-24 01:51 20.55770 -103.68373 34892 ft 495 kts 95°
2026-04-24 01:52 20.55108 -103.61112 34946 ft 494 kts 95°
2026-04-24 01:52 20.54441 -103.53809 35023 ft 494 kts 95°
2026-04-24 01:53 20.53767 -103.46505 35071 ft 495 kts 95°
2026-04-24 01:53 20.53084 -103.39197 35122 ft 495 kts 95°
2026-04-24 01:54 20.52428 -103.31881 35121 ft 495 kts 91°
2026-04-24 01:54 20.52609 -103.24560 35121 ft 494 kts 86°
2026-04-24 01:55 20.52890 -103.17228 35080 ft 494 kts 86°
2026-04-24 01:55 20.53161 -103.09896 34821 ft 495 kts 86°
2026-04-24 01:56 20.53436 -103.02544 34809 ft 495 kts 86°
2026-04-24 01:56 20.53711 -102.95198 34812 ft 496 kts 86°
2026-04-24 01:57 20.53983 -102.87839 34809 ft 496 kts 86°
2026-04-24 01:57 20.54256 -102.80482 34824 ft 496 kts 86°
2026-04-24 01:58 20.54523 -102.73120 34807 ft 496 kts 86°
2026-04-24 01:58 20.54786 -102.65804 34809 ft 497 kts 86°
2026-04-24 01:59 20.55049 -102.58437 34806 ft 497 kts 86°
2026-04-24 01:59 20.55302 -102.51066 34807 ft 497 kts 86°
2026-04-24 02:00 20.55556 -102.43701 34799 ft 497 kts 86°
2026-04-24 02:00 20.55811 -102.36329 34792 ft 497 kts 86°
2026-04-24 02:01 20.56052 -102.28953 34790 ft 498 kts 86°
2026-04-24 02:01 20.56254 -102.22810 34792 ft 498 kts 86°
2026-04-24 02:02 20.56495 -102.15418 34789 ft 498 kts 86°
2026-04-24 02:02 20.56733 -102.08031 34797 ft 498 kts 86°
2026-04-24 02:03 20.57084 -101.96942 34788 ft 498 kts 86°
2026-04-24 02:03 20.57031 -101.89561 34778 ft 500 kts 97°
2026-04-24 02:04 20.55864 -101.82228 34778 ft 500 kts 98°
2026-04-24 02:04 20.54666 -101.74911 34760 ft 501 kts 98°
2026-04-24 02:05 20.53463 -101.67587 34764 ft 501 kts 98°
2026-04-24 02:05 20.52265 -101.60319 34750 ft 501 kts 98°
2026-04-24 02:06 20.51050 -101.52954 34755 ft 501 kts 98°
2026-04-24 02:06 20.49849 -101.45635 34745 ft 501 kts 98°
2026-04-24 02:07 20.48650 -101.38365 34753 ft 501 kts 98°
2026-04-24 02:07 20.47441 -101.31046 34754 ft 501 kts 98°
2026-04-24 02:08 20.46227 -101.23730 34756 ft 501 kts 98°
2026-04-24 02:08 20.45013 -101.16422 34755 ft 500 kts 98°
2026-04-24 02:09 20.43794 -101.09122 34756 ft 499 kts 98°
2026-04-24 02:09 20.42574 -101.01847 34767 ft 498 kts 98°
2026-04-24 02:10 20.41352 -100.94583 34779 ft 497 kts 98°
2026-04-24 02:10 20.40131 -100.87328 34771 ft 497 kts 99°
2026-04-24 02:11 20.38910 -100.80074 34782 ft 497 kts 98°
2026-04-24 02:11 20.37688 -100.72819 34781 ft 497 kts 98°
2026-04-24 02:12 20.36459 -100.65568 34806 ft 497 kts 99°
2026-04-24 02:12 20.35234 -100.58367 34798 ft 496 kts 99°
2026-04-24 02:13 20.33999 -100.51125 34804 ft 497 kts 99°
2026-04-24 02:13 20.32757 -100.43884 34710 ft 497 kts 98°
2026-04-24 02:14 20.32138 -100.40256 34369 ft 498 kts 99°
2026-04-24 02:14 20.31519 -100.36630 34026 ft 498 kts 99°
2026-04-24 02:14 20.30896 -100.32990 33663 ft 499 kts 99°
2026-04-24 02:14 20.30272 -100.29349 33279 ft 500 kts 99°
2026-04-24 02:15 20.29649 -100.25703 32926 ft 501 kts 99°
2026-04-24 02:15 20.29021 -100.22052 32490 ft 500 kts 99°
2026-04-24 02:15 20.28395 -100.18426 32048 ft 497 kts 98°
2026-04-24 02:15 20.27771 -100.14811 31611 ft 495 kts 98°
2026-04-24 02:16 20.27147 -100.11206 31156 ft 495 kts 99°
2026-04-24 02:16 20.26521 -100.07598 30684 ft 496 kts 98°
2026-04-24 02:16 20.25896 -100.03991 30225 ft 496 kts 98°
2026-04-24 02:16 20.25270 -100.00371 29739 ft 497 kts 98°
2026-04-24 02:17 20.24642 -99.96752 29210 ft 497 kts 99°
2026-04-24 02:17 20.24011 -99.93132 28692 ft 498 kts 99°
2026-04-24 02:17 20.23379 -99.89501 28169 ft 499 kts 99°
2026-04-24 02:17 20.22746 -99.85864 27665 ft 500 kts 99°
2026-04-24 02:18 20.22109 -99.82219 27165 ft 501 kts 99°
2026-04-24 02:18 20.21470 -99.78566 26688 ft 503 kts 99°
2026-04-24 02:18 20.20691 -99.74932 26201 ft 505 kts 106°
2026-04-24 02:18 20.19599 -99.71383 25751 ft 506 kts 107°
2026-04-24 02:19 20.18493 -99.67825 25282 ft 507 kts 107°
2026-04-24 02:19 20.17386 -99.64263 24827 ft 507 kts 107°
2026-04-24 02:19 20.16274 -99.60693 24377 ft 507 kts 108°
2026-04-24 02:19 20.15167 -99.57134 23928 ft 505 kts 107°
2026-04-24 02:20 20.14066 -99.53598 23528 ft 502 kts 108°
2026-04-24 02:20 20.12971 -99.50081 23136 ft 499 kts 108°
2026-04-24 02:20 20.11882 -99.46588 22749 ft 496 kts 108°
2026-04-24 02:20 20.10802 -99.43122 22370 ft 491 kts 108°
2026-04-24 02:21 20.09731 -99.39684 21990 ft 487 kts 108°
2026-04-24 02:21 20.08670 -99.36278 21659 ft 484 kts 108°
2026-04-24 02:21 20.07614 -99.32892 21353 ft 481 kts 108°
2026-04-24 02:21 20.06565 -99.29532 21075 ft 478 kts 108°
2026-04-24 02:22 20.05515 -99.26182 20807 ft 475 kts 108°
2026-04-24 02:22 20.04472 -99.22860 20589 ft 472 kts 108°
2026-04-24 02:22 20.03439 -99.19579 20588 ft 458 kts 108°
2026-04-24 02:22 20.02447 -99.16432 20588 ft 441 kts 108°
2026-04-24 02:23 20.01462 -99.13300 20607 ft 451 kts 108°
2026-04-24 02:23 20.00480 -99.10168 20616 ft 453 kts 108°
2026-04-24 02:23 19.99470 -99.06943 20620 ft 455 kts 108°
2026-04-24 02:23 19.98479 -99.03788 20623 ft 455 kts 108°
2026-04-24 02:24 19.97473 -99.00589 20618 ft 456 kts 108°
2026-04-24 02:24 19.96578 -98.97356 20499 ft 456 kts 101°
2026-04-24 02:24 19.96024 -98.94039 19786 ft 453 kts 99°
2026-04-24 02:24 19.95538 -98.90767 19307 ft 443 kts 98°
2026-04-24 02:25 19.95085 -98.87556 18725 ft 438 kts 98°
2026-04-24 02:25 19.94614 -98.84370 18205 ft 433 kts 102°
2026-04-24 02:25 19.93713 -98.81328 17495 ft 429 kts 111°
2026-04-24 02:25 19.92660 -98.78367 17115 ft 422 kts 111°
2026-04-24 02:26 19.91640 -98.75555 16912 ft 393 kts 111°
2026-04-24 02:26 19.90683 -98.72939 16765 ft 366 kts 111°
2026-04-24 02:26 19.89669 -98.70557 16619 ft 343 kts 123°
2026-04-24 02:26 19.88222 -98.68695 16469 ft 322 kts 140°
2026-04-24 02:27 19.86409 -98.67390 16093 ft 311 kts 157°
2026-04-24 02:27 19.84373 -98.66715 15611 ft 304 kts 174°
2026-04-24 02:27 19.82283 -98.66668 15116 ft 299 kts 191°
2026-04-24 02:27 19.80285 -98.67221 14800 ft 295 kts 206°
2026-04-24 02:28 19.78469 -98.68212 14508 ft 293 kts 212°
2026-04-24 02:28 19.76678 -98.69248 14230 ft 292 kts 212°
2026-04-24 02:28 19.74874 -98.70290 13688 ft 302 kts 211°
2026-04-24 02:28 19.73016 -98.71363 13317 ft 303 kts 211°
2026-04-24 02:29 19.71164 -98.72426 13033 ft 302 kts 210°
2026-04-24 02:29 19.69325 -98.73483 12746 ft 300 kts 211°
2026-04-24 02:29 19.67493 -98.74537 12337 ft 299 kts 210°
2026-04-24 02:29 19.65680 -98.75578 12149 ft 292 kts 211°
2026-04-24 02:30 19.63934 -98.76577 12042 ft 279 kts 209°
2026-04-24 02:30 19.62242 -98.77547 11956 ft 276 kts 210°
2026-04-24 02:30 19.60576 -98.78503 11865 ft 266 kts 211°
2026-04-24 02:30 19.59113 -98.79605 11763 ft 252 kts 229°
2026-04-24 02:31 19.58080 -98.81071 11547 ft 246 kts 241°
2026-04-24 02:31 19.57221 -98.82619 11285 ft 241 kts 240°
2026-04-24 02:31 19.56378 -98.84139 11054 ft 236 kts 240°
2026-04-24 02:31 19.55552 -98.85619 10867 ft 230 kts 240°
2026-04-24 02:32 19.54747 -98.87061 10621 ft 224 kts 239°
2026-04-24 02:32 19.53966 -98.88459 10399 ft 217 kts 239°
2026-04-24 02:32 19.53203 -98.89825 10198 ft 213 kts 239°
2026-04-24 02:32 19.52458 -98.91158 10001 ft 206 kts 239°
2026-04-24 02:33 19.51750 -98.92425 9939 ft 196 kts 238°
2026-04-24 02:33 19.51074 -98.93632 9749 ft 186 kts 239°
2026-04-24 02:33 19.50418 -98.94805 9615 ft 183 kts 238°
2026-04-24 02:33 19.49771 -98.95961 9489 ft 180 kts 238°
2026-04-24 02:34 19.49158 -98.97058 9359 ft 169 kts 238°
2026-04-24 02:34 19.48560 -98.98126 9181 ft 166 kts 237°
2026-04-24 02:34 19.47968 -98.99176 8949 ft 166 kts 238°
2026-04-24 02:34 19.47371 -99.00221 8625 ft 165 kts 238°
2026-04-24 02:35 19.46792 -99.01273 8268 ft 164 kts 239°
2026-04-24 02:35 19.46222 -99.02319 7967 ft 162 kts 238°
2026-04-24 02:35 19.45643 -99.03334 7728 ft 160 kts 240°
2026-04-24 02:35 19.45081 -99.04342 7554 ft 158 kts 240°
2026-04-24 02:36 19.44524 -99.05326 7356 ft 155 kts 239°
2026-04-24 02:36 19.44002 -99.06259 7301 ft 130 kts 238°
2026-04-24 02:36 19.43633 -99.06931 7302 ft 81 kts 240°
2026-04-24 02:36 19.43408 -99.07322 7302 ft 40 kts 236°
2026-04-24 02:37 19.43326 -99.07562 7303 ft 31 kts 268°
2026-04-24 02:37 19.43322 -99.07727 7304 ft 20 kts 269°
2026-04-24 02:37 19.43323 -99.07872 7305 ft 19 kts 270°
2026-04-24 02:37 19.43326 -99.08015 7303 ft 20 kts 284°
2026-04-24 02:38 19.43410 -99.08093 7302 ft 14 kts 11°
2026-04-24 02:38 19.43479 -99.08028 7303 ft 12 kts 29°
2026-04-24 02:38 19.43531 -99.08039 7302 ft 7 kts 332°
2026-04-24 02:38 19.43552 -99.08051 7302 ft 0 kts 330°